Location: Piotrkow Trybunalski
(51.4000°N, 19.6830°E)
Time: 01:16:26
(UTC+01:00)

Tiangong - Visible Passes

Search period start: 01 December 2022 00:00
Search period end: 11 December 2022 00:00
Orbit: 385 x 393 km, 41.5° (Epoch: 30 November)

Date Brightness Start Highest point End Pass type
(mag) Time Alt. Az. Time Alt. Az. Time Alt. Az.
02 Dec 0.6 17:48:04 10° S 17:49:03 11° S 17:49:03 11° S visible
03 Dec 0.9 18:25:31 10° SSW 18:25:52 11° SSW 18:25:52 11° SSW visible
04 Dec 0.4 17:27:37 10° SSW 17:29:16 13° S 17:30:20 12° SSE visible
05 Dec 0.6 16:29:58 10° S 16:31:12 12° SSE 16:32:26 10° SE visible
05 Dec 0.5 18:05:35 10° SW 18:07:05 14° S 18:07:05 14° S visible
06 Dec 0.5 17:07:23 10° SW 17:09:11 14° S 17:11:00 10° SE visible
07 Dec 0.6 16:09:19 10° SSW 16:11:00 14° S 16:12:41 10° SE visible
07 Dec 0.6 17:45:44 10° SW 17:47:09 12° S 17:48:18 11° SSE visible
08 Dec 0.7 16:47:13 10° SW 16:48:56 14° S 16:50:39 10° SSE visible
10 Dec 0.9 16:27:10 10° SW 16:28:30 12° SSW 16:29:48 10° SSE visible
